Regional Weather Roundup
Issued by NWS New Orleans/Baton Rouge, LA

Home | Current Version | Previous Version | Text Only | Print | Product List | Glossary Off
Versions: 1 2 3 4 5 6 7 8 9 10 11 12 13 14 15 16 17 18 19 20 21 22 23 24 25 26 27 28 29 30 31 32 33 34 35 36 37 38 39 40 41 42 43 44 45 46 47 48 49 50

512
ASUS44 KLIX 241610
RWRLIX
NEW ORLEANS REGIONAL WEATHER ROUNDUP
NATIONAL WEATHER SERVICE NEW ORLEANS LA
1100 AM CDT THU APR 24 2014

NOTE: "FAIR" INDICATES FEW OR NO CLOUDS BELOW 12,000 FEET WITH NO
      SIGNIFICANT WEATHER AND/OR OBSTRUCTIONS TO VISIBILITY.
      SKY/WX - SKY CONDITION AND SIGNIFICANT WEATHER.
      TMP - AIR TEMPERATURE.     DP    - DEWPOINT TEMPERATURE.
      RH  - RELATIVE HUMIDITY.   PRES  - PRESSURE.
      HI  - HEAT INDEX.          WCI   - WIND CHILL INDEX.

*  THESE STATIONS ARE NOT NWS OR FAA STATIONS AND ARE NOT UNDER
   NWS QUALITY CONTROL.

LAZ038-040-048-061>063-065>067-069-241700-
SOUTHEAST LOUISIANA

CITY           SKY/WX    TMP DP  RH WIND       PRES   REMARKS
N.O. AUDUBON     N/A     82  64  55 MISG        N/A
N.O. INTL ARPT MOSUNNY   77  64  64 S9        29.99S
N.O. LAKEFRONT MOSUNNY   77  63  61 S9        30.00S
N.O. DOWNTOWN*   N/A     79  61  53 S3        30.00S
SLIDELL        MOSUNNY   77  62  59 S10       29.99S
BATON ROUGE    PTSUNNY   79  64  60 S15       29.97F
BOOTHVILLE     SUNNY     73  65  75 S5        30.01S
BELLE CHASSE   MOSUNNY   78  62  57 S5        29.99S
BOGALUSA*        N/A     77  63  60 S9        30.00S
GALLIANO*      MOSUNNY   80  64  58 S7        30.00R
NEW ROADS*     PTSUNNY   73  69  88 SE8G16    29.97S
GONZALES*      PTSUNNY   76  67  71 S9        29.98S
HAMMOND*       PTSUNNY   81  59  47 S10       30.00S
HOUMA*         PTSUNNY   75  64  69 S7        29.99S
PORT FOURCHON* PTSUNNY   75  66  73 SE8       30.02R

$$

MSZ070-080>082-241700-
SOUTHERN MISSISSIPPI

CITY           SKY/WX    TMP DP  RH WIND       PRES   REMARKS
MCCOMB         SUNNY     74  62  66 S8        29.99R
GULFPORT       MOSUNNY   78  64  61 SE9       29.99S
BILOXI         MOSUNNY   77  66  69 S6        30.00S
PASCAGOULA     MOSUNNY   76  65  68 VRB6      30.00R
STENNIS ARPT*  PTSUNNY   66  52  59 SE6       29.99F

$$

COASTAL OBSERVATIONS
LAKE AND NEARSHORE STATIONS

STATION/POSITION TIME  TEMP    WIND        PRES    WAVE
                       AIR SEA DIR/SP/G            HT/PER
                 (UTC) (F)     (DEG/KT/KT) (MB)    (FT/S)
PASCAGOULA       1600   73     200/  6/  9 1015.6
WAVELAND YACHT   1600   71 74  160/  8/  9 1015.1
GRAND ISLE       1600   73 72  140/  5/  8 1016.7
SOUTHWEST PASS   1600   75 60  140/  4/  6 1016.6
NEW CANAL        1600   72 71   20/  5/  7 1015.9
SHELL BEACH      1600   74 68  200/  4/  9 1015.7

OFFSHORE STATIONS

STATION/POSITION TIME  TEMP    WIND        PRES    WAVE
                       AIR SEA DIR/SP/G            HT/PER
                 (UTC) (F)     (DEG/KT/KT) (MB)    (FT/S)
64 S DAUPHIN ISL 1550   71 73  140/  4/  6 1016.6

$$




USA.gov is the U.S. government's official web portal to all federal, state and local government web resources and services.